Weather History for Chester, CT

Change the Weather History Date:

Saturday, February 9, 2013

  Actual Average (KHVN) Record (KHVN)
Temperature  
Mean Temperature 24 °F -  
Max Temperature 28 °F 37 °F 28 °F (2014)
Min Temperature 19 °F 24 °F 17 °F (2014)
Degree Days  
Heating Degree Days 40    
Moisture  
Dew Point 11 °F    
Average Humidity 60    
Maximum Humidity 93    
Minimum Humidity 27    
Precipitation  
Precipitation 0.28 in - - ()
Sea Level Pressure  
Sea Level Pressure 29.89 in    
Wind  
Wind Speed 15 mph (NNW)    
Max Wind Speed 30 mph    
Max Gust Speed 43 mph    
Visibility 4 miles    
Events Snow    
Averages and records for this station are not official NWS values.
T = Trace of Precipitation, MM = Missing Value Source: NWS Daily Summary

Daily Weather History Graph

Daily Weather History Graph

Search for Another Location

Airport:

Trip Planner

Search our weather history database for the weather conditions in past years. The results will help you decide how hot, cold, wet, or windy it might be!

Date:

Astronomy

Feb. 09, 2013 Rise Set
Actual Time 6:52 AM EST 5:16 PM EST
Civil Twilight 6:23 AM EST 5:45 PM EST
Nautical Twilight 5:51 AM EST 6:18 PM EST
Astronomical Twilight 5:18 AM EST 6:50 PM EST
Moon 6:02 AM EST (2/9) 4:56 PM EST (2/9)
Length of Visible Light 11h 21m
Length of Day
10h 24m
Waning Crescent, 0% of the Moon is Illuminated
Feb 9
Waning Crescent
Feb 10
New
Feb 17
First Quarter
Feb 25
Full
Mar 4
Last Quarter

Hourly Weather History & Observations

Time (EST) Temp. Windchill Dew Point Humidity Pressure Visibility Wind Dir Wind Speed Gust Speed Precip Events Conditions
12:15 AM 23.0 °F 11.1 °F 19.4 °F 86% 29.61 in 0.2 mi North 12.7 mph 31.1 mph N/A   Overcast
12:35 AM 23.0 °F 12.4 °F 21.2 °F 93% 29.61 in 0.2 mi North 10.4 mph 26.5 mph N/A   Overcast
12:55 AM 23.0 °F 10.6 °F 19.4 °F 86% 29.61 in 0.2 mi North 13.8 mph 31.1 mph N/A   Overcast
1:15 AM 23.0 °F 10.6 °F 21.2 °F 93% 29.62 in 0.2 mi North 13.8 mph 26.5 mph N/A   Overcast
1:35 AM 21.2 °F 7.8 °F 19.4 °F 93% 29.63 in 0.2 mi North 15.0 mph 28.8 mph N/A   Overcast
1:55 AM 21.2 °F 9.5 °F 19.4 °F 93% 29.63 in 0.2 mi North 11.5 mph 24.2 mph N/A   Overcast
2:15 AM 21.2 °F 11.7 °F 19.4 °F 93% 29.64 in 0.2 mi North 8.1 mph 25.3 mph N/A   Overcast
2:35 AM 23.0 °F 11.1 °F 19.4 °F 86% 29.64 in 0.2 mi North 12.7 mph 33.4 mph N/A   Overcast
2:55 AM 23.0 °F 10.6 °F 21.2 °F 93% 29.64 in 0.2 mi North 13.8 mph 21.9 mph N/A   Overcast
3:15 AM 23.0 °F 11.1 °F 21.2 °F 93% 29.65 in 0.2 mi North 12.7 mph 31.1 mph N/A   Overcast
3:35 AM 24.8 °F 12.9 °F 23.0 °F 93% 29.66 in 0.2 mi North 13.8 mph 32.2 mph N/A   Overcast
3:55 AM 24.8 °F 16.1 °F 23.0 °F 93% 29.67 in 0.2 mi North 8.1 mph 25.3 mph N/A   Overcast
4:15 AM 26.6 °F 15.2 °F 23.0 °F 86% 29.66 in 0.2 mi NNW 13.8 mph 32.2 mph N/A   Overcast
4:35 AM 26.6 °F 17.5 °F 23.0 °F 86% 29.67 in 0.2 mi NNW 9.2 mph 24.2 mph N/A   Overcast
4:55 AM 26.6 °F 18.2 °F 24.8 °F 93% 29.67 in 0.2 mi NNW 8.1 mph 26.5 mph N/A   Overcast
5:15 AM 26.6 °F 13.8 °F 24.8 °F 93% 29.67 in 0.2 mi NNW 17.3 mph 27.6 mph N/A   Overcast
5:35 AM 26.6 °F 16.8 °F 24.8 °F 93% 29.68 in 0.2 mi NNW 10.4 mph 24.2 mph N/A   Overcast
5:55 AM 26.6 °F 15.7 °F 23.0 °F 86% 29.69 in 0.2 mi NNW 12.7 mph 26.5 mph N/A   Overcast
6:15 AM 26.6 °F 14.7 °F 23.0 °F 86% 29.71 in 0.2 mi North 15.0 mph 27.6 mph N/A   Overcast
6:35 AM 24.8 °F 14.0 °F 23.0 °F 93% 29.72 in 0.2 mi NNW 11.5 mph 24.2 mph N/A   Overcast
6:55 AM 24.8 °F 13.4 °F 21.2 °F 86% 29.73 in 0.2 mi NNW 12.7 mph 24.2 mph N/A   Overcast
7:15 AM 24.8 °F 12.9 °F 21.2 °F 86% 29.74 in 0.2 mi NNW 13.8 mph 29.9 mph N/A   Overcast
7:35 AM 23.0 °F 10.1 °F 21.2 °F 93% 29.75 in 0.2 mi NNW 15.0 mph 27.6 mph N/A   Overcast
7:55 AM 23.0 °F 10.1 °F 19.4 °F 86% 29.75 in 0.2 mi NNW 15.0 mph 28.8 mph N/A   Overcast
8:15 AM 23.0 °F 8.3 °F 19.4 °F 86% 29.76 in 0.5 mi NNW 19.6 mph 32.2 mph N/A   Mostly Cloudy
8:35 AM 23.0 °F 9.6 °F 17.6 °F 80% 29.77 in 1.0 mi NNW 16.1 mph 29.9 mph N/A   Clear
8:55 AM 23.0 °F 9.2 °F 17.6 °F 80% 29.78 in 1.5 mi NNW 17.3 mph 31.1 mph N/A   Clear
9:15 AM 23.0 °F 6.9 °F 15.8 °F 74% 29.79 in 1.0 mi NNW 24.2 mph 36.8 mph N/A   Scattered Clouds
9:35 AM 23.0 °F 7.6 °F 15.8 °F 74% 29.80 in 1.0 mi NNW 21.9 mph 33.4 mph N/A   Clear
9:55 AM 23.0 °F 7.6 °F 15.8 °F 74% 29.80 in - NNW 21.9 mph 42.6 mph N/A   Clear
10:15 AM 23.0 °F 11.1 °F 15.8 °F 74% 29.82 in - NNW 12.7 mph 34.5 mph N/A   Clear
10:35 AM 24.8 °F 9.3 °F 14.0 °F 64% 29.83 in - NNW 24.2 mph 33.4 mph N/A   Clear
10:55 AM 23.0 °F 8.0 °F 12.2 °F 63% 29.84 in - NNW 20.7 mph 34.5 mph N/A   Clear
11:15 AM 24.8 °F 10.3 °F 14.0 °F 64% 29.85 in - NNW 20.7 mph 32.2 mph N/A   Clear
11:35 AM 24.8 °F 9.3 °F 14.0 °F 64% 29.85 in - NNW 24.2 mph 35.7 mph N/A   Clear
11:55 AM 26.6 °F 11.7 °F 12.2 °F 55% 29.85 in - NNW 24.2 mph 36.8 mph N/A   Partly Cloudy
12:15 PM 26.6 °F 10.3 °F 12.2 °F 55% 29.85 in - North 29.9 mph 38.0 mph N/A   Clear
12:35 PM 26.6 °F 10.8 °F 10.4 °F 51% 29.86 in - NNW 27.6 mph 34.5 mph N/A   Clear
12:55 PM 26.6 °F 12.4 °F 10.4 °F 51% 29.87 in - North 21.9 mph 38.0 mph N/A   Clear
1:15 PM 28.4 °F 17.5 °F 8.6 °F 43% 29.88 in - NNW 13.8 mph 27.6 mph N/A   Clear
1:35 PM 28.4 °F 14.4 °F 5.0 °F 37% 29.89 in 1.5 mi North 23.0 mph 33.4 mph N/A   Clear
1:55 PM 28.4 °F 13.0 °F 5.0 °F 37% 29.91 in 2.0 mi North 28.8 mph 40.3 mph N/A   Clear
2:15 PM 28.4 °F 14.7 °F 3.2 °F 34% 29.92 in 1.5 mi North 21.9 mph 39.1 mph N/A   Clear
2:35 PM 28.4 °F 15.1 °F 3.2 °F 34% 29.94 in 1.8 mi North 20.7 mph 34.5 mph N/A   Clear
2:55 PM 28.4 °F 14.1 °F 3.2 °F 34% 29.95 in 1.8 mi NNW 24.2 mph 39.1 mph N/A   Clear
3:15 PM 28.4 °F 13.5 °F 1.4 °F 31% 29.96 in 2.0 mi North 26.5 mph 38.0 mph N/A   Clear
3:55 PM 28.4 °F 15.4 °F -0.4 °F 29% 29.98 in 2.5 mi North 19.6 mph 36.8 mph 0.27 in Snow Light Snow
4:15 PM 28.4 °F 15.1 °F -2.2 °F 27% 29.99 in 3.0 mi NNW 20.7 mph 36.8 mph N/A Snow Light Snow
4:35 PM 26.6 °F 12.0 °F -2.2 °F 29% 30.01 in 6.0 mi North 23.0 mph 34.5 mph 0.01 in Snow Light Snow
4:55 PM 26.6 °F 12.7 °F -0.4 °F 31% 30.02 in 7.0 mi NNW 20.7 mph 35.7 mph 0.01 in Snow Light Snow
5:15 PM 26.6 °F 13.4 °F -2.2 °F 29% 30.04 in 7.0 mi NNW 18.4 mph 35.7 mph N/A Snow Light Snow
5:35 PM 26.6 °F 12.4 °F -2.2 °F 29% 30.06 in 8.0 mi NNW 21.9 mph 36.8 mph N/A Snow Light Snow
5:55 PM 26.6 °F 12.7 °F -0.4 °F 31% 30.08 in 4.0 mi North 20.7 mph 35.7 mph N/A Snow Light Snow
6:15 PM 26.6 °F 14.7 °F -0.4 °F 31% 30.09 in 7.0 mi North 15.0 mph 35.7 mph N/A Snow Light Snow
6:35 PM 26.6 °F 13.8 °F -0.4 °F 31% 30.11 in 10.0 mi NNW 17.3 mph 28.8 mph N/A   Clear
6:55 PM 24.8 °F 12.9 °F -0.4 °F 34% 30.11 in 10.0 mi NNW 13.8 mph 20.7 mph N/A   Clear
7:15 PM 24.8 °F 12.9 °F -0.4 °F 34% 30.12 in 10.0 mi NNW 13.8 mph 19.6 mph N/A   Clear
7:35 PM 23.0 °F 12.4 °F -0.4 °F 36% 30.13 in 10.0 mi North 10.4 mph 19.6 mph N/A   Clear
7:55 PM 23.0 °F 11.7 °F 1.4 °F 39% 30.13 in 10.0 mi NNW 11.5 mph 19.6 mph N/A   Clear
8:15 PM 23.0 °F 10.1 °F 1.4 °F 39% 30.14 in 10.0 mi NNW 15.0 mph 21.9 mph N/A   Clear
8:35 PM 23.0 °F 11.1 °F 1.4 °F 39% 30.15 in 10.0 mi North 12.7 mph 24.2 mph N/A   Clear
8:55 PM 23.0 °F 10.6 °F 1.4 °F 39% 30.17 in 10.0 mi North 13.8 mph 21.9 mph N/A   Clear
9:15 PM 23.0 °F 11.7 °F -0.4 °F 36% 30.19 in 10.0 mi North 11.5 mph 21.9 mph N/A   Clear
9:35 PM 23.0 °F 11.1 °F -0.4 °F 36% 30.19 in 10.0 mi NNW 12.7 mph 23.0 mph N/A   Clear
9:55 PM 21.2 °F 6.4 °F -0.4 °F 39% 30.20 in 10.0 mi North 18.4 mph 25.3 mph N/A   Clear
10:15 PM 21.2 °F 7.3 °F -0.4 °F 39% 30.21 in 10.0 mi North 16.1 mph 25.3 mph N/A   Clear
10:35 PM 21.2 °F 8.3 °F -0.4 °F 39% 30.21 in 10.0 mi North 13.8 mph 21.9 mph N/A   Clear
10:55 PM 21.2 °F 8.3 °F -0.4 °F 39% 30.22 in 10.0 mi North 13.8 mph 19.6 mph N/A   Clear
11:15 PM 21.2 °F 9.5 °F -0.4 °F 39% 30.23 in 10.0 mi NNW 11.5 mph 18.4 mph N/A   Clear
11:35 PM 21.2 °F 10.9 °F -0.4 °F 39% 30.23 in 10.0 mi NNW 9.2 mph 16.1 mph N/A   Clear
11:55 PM 19.4 °F 8.6 °F -2.2 °F 39% 30.24 in 10.0 mi NNW 9.2 mph - N/A   Clear